Weather Roundup
Issued by NWS Chicago, IL

Home | Current Version | Previous Version | Graphics & Text | Print | Product List | Glossary On
Versions: 1 2 3 4 5 6 7 8 9 10 11 12 13 14 15 16 17 18 19 20 21 22 23 24 25 26 27 28 29 30 31 32 33 34 35 36 37 38 39 40 41 42 43 44 45 46 47 48 49 50
000
NZUS59 KLOT 270409
HRRLOT

CHICAGO AREA WEATHER ROUNDUP
NATIONAL WEATHER SERVICE CHICAGO/ROMEOVILLE IL
1100 PM CDT THU MAY 26 2016

NOTE: "FAIR" INDICATES FEW OR NO CLOUDS BELOW 12,000 FEET WITH NO
SIGNIFICANT WEATHER AND/OR OBSTRUCTIONS TO VISIBILITY.

* THESE STATIONS ARE NOT UNDER NWS QUALITY CONTROL. THEY ALSO MAY NOT
  REPORT WEATHER SUCH AS PRECIPITATION OR FOG.

ILZ005-006-012>014-019>023-270500-
NORTHEAST ILLINOIS

CITY           SKY/WX    TMP DP  RH WIND       PRES   REMARKS
OHARE          CLOUDY    76  64  66 E6        29.88S
MIDWAY         CLOUDY    79  63  57 S10       29.90R HX  80
AURORA         CLOUDY    74  66  76 S5        29.89S
LANSING*       CLOUDY    73  65  77 S10       29.92R
JOLIET*        CLOUDY    77  69  75 S7        29.91S
WAUKEGAN       CLOUDY    66  62  87 CALM      29.88S
DUPAGE AIRPORT CLOUDY    71  65  81 S6        29.89R
WHEELING       MOCLDY    71  64  78 SE5       29.90S
KANKAKEE*      CLOUDY    71  65  83 S13       29.94S
MORRIS*        CLOUDY    76  67  74 SW9       29.90S
LEWIS AIRPORT* CLOUDY    76  65  70 SW10G17   29.90S
$$

WIZ051-052-058>065-066-070>072-270500-
SOUTHEAST WISCONSIN

CITY           SKY/WX    TMP DP  RH WIND       PRES   REMARKS
MILWAUKEE      CLOUDY    72  61  68 CALM      29.88F
KENOSHA*       CLOUDY    67  63  87 E3        29.88F
RACINE*        CLOUDY    69  60  73 CALM      29.90F
BURLINGTON     CLOUDY    63  60  90 CALM      29.88F
WAUKESHA       CLOUDY    64  55  72 CALM      29.89F
WEST BEND      CLOUDY    63  59  88 CALM      29.88F
$$

INZ001>003-010>013-019-020-270500-
NORTHWEST INDIANA

CITY           SKY/WX    TMP DP  RH WIND       PRES   REMARKS
GARY*          CLOUDY    76  73  88 S8        29.92S
MICHIGAN CITY* NOT AVBL
RENSSELAER*    NOT AVBL
VALPARAISO     CLOUDY    72  65  78 S10       29.94R
$$

LMZ740>746-270500-
SOUTHERN LAKE MICHIGAN

STATION/POSITION TIME  SKY/WX   TEMP WIND        PRES    VSBY
                                AIR  DIR/SP/G
                 (UTC)          (F)  (DEG/KT/KT) (MB)    (MI)
HARRISON CRIB    0300            78  140/ 11/ 12   N/A
BURNHAM HARBOR   0400            72  190/  6       N/A
CALUMET HARBOR   0300                            1011.7F
BURNS HARBOR     0300            76  180/ 12/ 17 1013.2S
MICHIGAN CITY    0300            76  140/  9/ 10   N/A
$$

ABBREVIATIONS USED IN REMARKS
   TC - TEMPERATURE IN CELSIUS
  WCI - WIND CHILL INDEX
   HX - HEAT INDEX
  VSB - VISIBILITY
$$




USA.gov is the U.S. government's official web portal to all federal, state and local government web resources and services.